Weather History for Laredo, TX

Change the Weather History Date:

Wednesday, September 25, 2013

  Actual Average Record
Temperature  
Mean Temperature 85 °F 81 °F  
Max Temperature 99 °F 91 °F 108 °F (2005)
Min Temperature 71 °F 70 °F 50 °F (1989)
Degree Days  
Heating Degree Days 0 0  
Month to date heating degree days 0 0  
Since 1 July heating degree days 0 0  
Cooling Degree Days 20 16  
Month to date cooling degree days 467 466  
Year to date cooling degree days 3872 3709  
Growing Degree Days 34 (Base 50)    
Moisture  
Dew Point 62 °F    
Average Humidity 49    
Maximum Humidity 84    
Minimum Humidity 27    
Precipitation  
Precipitation 0.00 in 0.09 in 2.80 in (1913)
Month to date precipitation 1.59 2.49  
Year to date precipitation 14.46 15.48  
Sea Level Pressure  
Sea Level Pressure 29.82 in    
Wind  
Wind Speed 4 mph (SE)    
Max Wind Speed 17 mph    
Max Gust Speed 21 mph    
Visibility 10 miles    
Events      
T = Trace of Precipitation, MM = Missing Value Source: NWS Daily Summary

Daily Weather History Graph

Daily Weather History Graph

Search for Another Location

Airport:

Trip Planner

Search our weather history database for the weather conditions in past years. The results will help you decide how hot, cold, wet, or windy it might be!

Date:

Astronomy

Sep. 25, 2013 Rise Set
Actual Time 7:27 AM CDT 7:30 PM CDT
Civil Twilight 7:04 AM CDT 7:53 PM CDT
Nautical Twilight 6:37 AM CDT 8:20 PM CDT
Astronomical Twilight 6:10 AM CDT 8:48 PM CDT
Moon No Moon Rise 1:07 PM CDT (9/25)
Length of Visible Light 12h 49m
Length of Day
12h 02m
Waning Gibbous, 64% of the Moon is Illuminated
Sep 25
Waning Gibbous
Sep 26
Last Quarter
Oct 4
New
Oct 11
First Quarter
Oct 18
Full

Hourly Weather History & Observations

Time (CDT) Temp. Heat Index Dew Point Humidity Pressure Visibility Wind Dir Wind Speed Gust Speed Precip Events Conditions
12:56 AM 79.9 °F - 61.0 °F 52% 29.86 in 10.0 mi SSE 6.9 mph - N/A   Clear
1:56 AM 79.0 °F - 61.9 °F 56% 29.86 in 10.0 mi SSE 8.1 mph - N/A   Clear
2:56 AM 77.9 °F - 63.0 °F 60% 29.85 in 10.0 mi SSE 8.1 mph - N/A   Clear
3:56 AM 75.9 °F - 63.9 °F 66% 29.85 in 10.0 mi Calm Calm - N/A   Clear
4:56 AM 73.9 °F - 63.9 °F 71% 29.84 in 10.0 mi Calm Calm - N/A   Clear
5:56 AM 72.9 °F - 64.9 °F 76% 29.85 in 10.0 mi Calm Calm - N/A   Clear
6:56 AM 72.9 °F - 65.8 °F 79% 29.86 in 10.0 mi Calm Calm - N/A   Clear
7:56 AM 72.0 °F - 66.9 °F 84% 29.86 in 10.0 mi Calm Calm - N/A   Clear
8:56 AM 77.9 °F - 66.9 °F 69% 29.87 in 10.0 mi SSE 5.8 mph - N/A   Clear
9:56 AM 84.9 °F 87.1 °F 65.8 °F 53% 29.88 in 10.0 mi SSE 8.1 mph - N/A   Clear
10:56 AM 88.9 °F 91.8 °F 66.9 °F 48% 29.88 in 10.0 mi South 8.1 mph - N/A   Clear
11:56 AM 91.9 °F 94.1 °F 64.9 °F 41% 29.87 in 10.0 mi South 6.9 mph - N/A   Clear
12:56 PM 95.0 °F 95.2 °F 61.0 °F 32% 29.85 in 10.0 mi SE 8.1 mph - N/A   Clear
1:56 PM 95.9 °F 95.3 °F 59.0 °F 29% 29.82 in 10.0 mi ESE 10.4 mph 18.4 mph N/A   Clear
2:56 PM 97.9 °F 97.4 °F 59.0 °F 27% 29.79 in 10.0 mi ESE 9.2 mph - N/A   Scattered Clouds
3:56 PM 97.9 °F 97.4 °F 59.0 °F 27% 29.76 in 10.0 mi East 8.1 mph - N/A   Scattered Clouds
4:56 PM 97.9 °F 97.0 °F 57.9 °F 26% 29.75 in 10.0 mi SE 9.2 mph - N/A   Partly Cloudy
5:56 PM 97.0 °F 96.1 °F 57.9 °F 27% 29.75 in 10.0 mi SE 11.5 mph - N/A   Partly Cloudy
6:56 PM 93.9 °F 92.6 °F 56.8 °F 29% 29.75 in 10.0 mi ESE 11.5 mph - N/A   Partly Cloudy
7:56 PM 90.9 °F 89.7 °F 57.9 °F 33% 29.77 in 10.0 mi ESE 10.4 mph - N/A   Clear
8:56 PM 86.0 °F 85.0 °F 57.9 °F 38% 29.78 in 10.0 mi East 8.1 mph - N/A   Clear
9:56 PM 83.8 °F 83.3 °F 57.9 °F 41% 29.79 in 10.0 mi ESE 8.1 mph - N/A   Clear
10:56 PM 81.9 °F 83.2 °F 63.9 °F 54% 29.80 in 10.0 mi SE 12.7 mph - N/A   Clear
11:56 PM 81.9 °F 85.2 °F 68.9 °F 65% 29.81 in 10.0 mi SE 13.8 mph - N/A   Clear